Theta_e
313 313 312 312 312 311 310 308 306 306 306 306 306 306 307 306 307 307 307 307 307 307 307 307 308 308 308 309 309 311 311 311 315 321 323 320 316 314 313 312 312 312 314 316 316 316 315 316 316 315 317 319 321 322 321 322 323 325 328 322 318 320 317 317 319 319 320 319 318 317 317 317 317 316 316 315 316 316 316 315 314 314 313 313 313 313 314 314
312 311 310 311 312 312 311 310 308 306 306 307 306 307 307 306 306 306 307 307 307 307 307 308 308 308 309 309 310 311 311 313 317 321 319 317 315 313 313 312 313 313 315 317 316 316 315 315 316 315 316 319 321 322 322 322 322 323 326 321 318 320 317 317 319 318 320 319 317 317 317 316 316 317 315 315 316 316 316 315 315 315 314 314 313 313 314 314
310 310 309 310 311 311 311 310 309 308 307 307 307 307 307 307 306 306 307 307 308 307 307 308 308 309 310 310 312 311 315 321 321 320 316 314 314 313 313 313 313 313 315 316 315 315 315 315 315 315 316 317 318 319 321 321 321 320 321 321 319 318 316 316 318 317 317 318 317 317 316 315 316 316 315 316 316 316 316 315 315 316 314 313 313 313 314 314
309 309 309 309 310 311 310 309 308 307 307 307 306 307 308 308 308 307 307 308 309 308 308 309 308 310 310 311 313 312 319 326 322 318 315 313 314 313 313 314 314 314 315 315 315 315 315 315 315 315 316 317 316 317 318 319 320 318 317 320 317 315 316 316 317 317 317 317 316 317 316 315 316 316 316 315 316 317 315 314 314 315 314 313 313 313 314 314
310 310 310 310 311 311 310 308 308 308 308 308 306 306 308 308 309 309 308 308 309 309 309 309 310 311 310 313 312 313 323 323 317 316 314 313 313 313 314 314 314 314 315 315 315 316 316 316 315 316 316 317 318 317 316 317 318 318 316 318 316 315 316 316 317 317 316 316 315 316 315 315 316 315 316 315 316 317 314 313 313 313 312 312 312 313 313 314
311 312 312 311 312 312 311 310 309 309 309 310 308 307 307 308 308 310 310 309 310 310 311 311 312 312 311 314 312 315 325 319 315 318 313 313 313 312 314 313 314 315 315 316 316 316 317 316 315 317 316 316 317 316 316 316 316 317 317 317 316 316 316 316 317 316 316 315 315 315 315 315 316 316 316 317 317 315 312 311 311 311 311 312 312 313 313 313
311 312 312 312 312 311 311 311 308 308 309 309 309 308 308 308 308 310 311 310 311 312 313 313 313 313 313 314 317 321 323 318 317 317 313 314 314 313 314 313 314 314 315 316 316 317 316 316 315 316 317 316 316 316 316 317 316 318 318 317 317 316 316 317 317 316 315 315 316 315 315 315 315 316 316 316 314 312 311 311 311 311 311 312 312 312 312 313
312 312 312 312 312 310 309 309 309 310 310 309 309 308 308 309 308 309 312 313 313 312 314 314 314 315 313 315 322 324 321 320 317 314 313 314 313 313 313 314 314 314 316 316 316 317 316 316 316 315 316 316 316 316 316 317 318 318 318 317 317 316 316 317 317 316 315 315 316 315 315 315 315 315 315 315 312 311 311 311 310 311 311 311 311 312 312 312
312 312 311 312 312 311 310 310 310 311 310 308 308 307 308 308 308 309 311 313 314 314 314 315 315 316 313 316 322 319 318 319 313 312 314 313 313 313 313 316 316 315 317 317 316 316 317 316 316 315 315 316 316 316 317 317 318 317 317 317 317 317 316 316 316 316 316 315 316 316 315 316 316 315 315 314 312 311 311 311 311 311 311 311 311 311 311 311
311 311 311 312 312 311 312 312 311 311 309 309 307 307 308 308 308 309 310 313 314 315 315 315 316 315 316 321 322 316 318 317 313 314 313 313 314 313 315 317 316 316 317 317 317 317 316 316 317 317 316 316 316 316 317 317 317 316 316 316 316 317 317 317 316 316 316 316 316 315 315 316 315 316 315 312 311 311 311 311 311 312 311 311 311 311 311 311
311 311 312 312 311 312 313 313 313 312 310 309 307 306 308 308 308 309 311 313 314 315 315 315 315 314 318 321 318 317 320 317 316 316 314 315 315 315 316 317 316 317 318 317 317 317 316 316 316 315 315 316 316 317 316 315 315 316 316 316 317 317 317 317 317 317 317 316 316 315 315 315 314 315 315 312 311 311 311 311 311 312 311 311 311 311 310 310
311 311 312 311 311 313 314 314 314 313 311 311 309 307 307 308 309 310 312 313 315 315 314 315 315 315 318 319 316 319 321 318 319 318 317 317 316 316 317 317 317 317 317 317 318 317 315 315 315 315 315 316 317 317 316 314 315 315 316 316 318 318 318 318 317 317 317 316 316 315 315 316 314 314 313 311 311 312 312 312 312 312 312 311 311 310 310 310
311 311 312 312 313 314 315 315 315 313 313 313 311 310 309 309 309 310 313 314 315 314 314 315 314 315 320 319 316 318 318 318 319 319 319 319 318 318 317 317 316 316 316 316 318 317 314 314 315 315 316 316 316 316 315 315 315 316 316 316 318 319 319 319 317 316 316 315 315 314 317 318 315 313 312 311 312 312 313 312 312 312 311 311 310 311 310 309
311 311 311 312 314 314 315 315 314 314 314 313 313 313 310 310 310 311 314 315 315 314 315 315 314 317 320 317 316 316 316 317 318 319 319 318 318 317 316 316 315 315 316 315 316 315 313 314 315 315 315 316 316 315 315 316 316 316 318 318 319 320 319 317 316 316 315 315 314 314 317 319 316 313 311 311 312 312 313 313 313 312 311 311 311 311 310 309
312 311 311 313 314 315 315 314 314 315 315 313 313 313 312 312 312 313 314 315 316 315 314 315 315 319 320 316 316 316 314 316 317 318 318 318 318 317 316 315 315 315 314 314 314 313 313 314 315 316 315 315 315 316 318 319 318 318 319 321 321 321 319 317 316 316 315 314 313 314 317 318 316 314 312 311 312 313 314 314 313 312 311 311 311 310 310 309
312 312 311 313 314 314 314 314 315 316 315 313 314 314 313 314 315 315 315 315 316 315 316 320 317 317 318 317 317 316 316 317 318 318 317 318 319 317 316 315 314 314 314 313 313 313 315 315 316 317 316 315 316 318 320 321 321 321 321 321 322 321 320 318 316 316 316 314 313 314 317 317 316 315 313 312 312 313 314 315 313 312 311 311 311 310 310 309
311 312 312 312 313 314 314 315 316 315 315 315 314 314 314 316 316 316 315 315 315 315 318 321 318 316 317 316 316 318 318 318 320 319 317 318 319 317 315 315 315 315 314 314 314 314 315 315 317 318 317 317 318 320 322 323 323 323 322 321 321 322 319 318 317 316 317 316 314 315 315 317 317 315 313 312 312 313 314 315 314 312 312 311 311 310 310 310
311 312 313 312 312 313 314 315 315 316 316 315 313 314 315 316 315 317 317 315 315 317 317 317 317 318 317 315 316 318 319 319 320 319 317 317 317 316 315 315 315 315 315 315 315 315 315 316 317 318 319 318 318 320 323 324 323 322 322 321 321 321 320 319 318 317 317 316 316 316 316 316 317 314 313 313 312 312 313 315 314 312 311 311 311 310 310 310
312 311 312 312 312 312 314 315 316 316 315 314 315 316 316 316 316 318 320 317 318 320 319 318 318 317 317 317 317 318 319 318 318 318 317 316 315 315 316 315 316 315 316 317 317 316 317 319 320 321 322 320 319 319 321 323 321 321 321 321 321 319 319 319 318 316 316 316 316 318 317 318 318 315 313 313 313 313 314 315 314 312 311 311 311 310 311 310
313 312 312 312 312 313 314 315 315 315 314 315 317 319 320 321 321 321 320 319 318 319 318 318 318 316 317 318 317 316 317 316 317 318 316 315 314 315 315 315 317 317 317 320 320 317 318 321 323 322 321 320 320 320 319 320 320 321 321 321 321 319 319 319 317 316 316 317 318 319 319 319 319 317 314 313 313 314 315 315 314 312 311 310 311 311 310 309
313 312 312 312 313 314 315 316 316 316 315 315 317 321 322 322 322 320 319 320 319 318 318 318 317 317 318 318 316 315 316 315 316 318 315 314 315 316 316 315 317 318 318 320 320 317 319 322 322 321 320 319 320 320 320 320 320 320 320 320 320 320 319 320 318 315 315 318 319 319 319 319 319 319 317 314 313 313 314 315 313 312 311 311 311 311 310 308
313 312 312 313 314 315 316 317 317 317 316 315 317 320 321 319 317 316 317 319 320 319 318 318 318 317 317 317 316 316 317 316 316 318 315 314 315 316 316 316 317 318 318 319 321 321 321 321 320 319 320 320 320 320 320 320 320 321 321 320 321 320 320 320 318 315 315 317 319 319 319 319 319 320 318 315 313 313 314 314 314 312 311 311 311 310 309 307
313 312 313 314 315 316 317 318 318 317 316 316 317 319 320 317 315 316 317 319 320 321 320 319 318 318 317 316 316 315 317 317 317 318 315 314 315 316 316 316 317 318 318 319 321 323 323 321 319 319 320 320 320 319 319 320 320 321 321 321 321 321 321 321 317 315 315 316 318 319 319 319 318 319 319 317 314 314 314 314 315 314 312 311 311 309 308 307
314 312 313 315 315 316 318 317 317 316 315 316 317 318 319 317 316 317 320 320 320 320 321 320 319 319 319 316 316 316 317 317 318 318 316 315 315 316 316 316 317 318 318 318 320 322 322 320 320 320 320 320 320 319 320 320 319 322 323 321 321 321 321 321 319 318 317 317 318 318 320 321 320 320 320 316 313 313 312 311 313 312 311 311 311 310 308 308
315 313 313 315 316 317 318 318 316 315 316 317 316 317 318 318 317 317 320 322 321 321 322 322 321 321 319 316 315 316 316 317 318 318 315 315 316 317 317 317 318 318 319 319 320 320 320 320 321 322 320 321 321 320 322 322 320 322 324 322 320 320 321 322 324 323 323 324 319 318 326 329 323 322 322 316 313 313 311 310 311 310 309 309 309 309 308 309
316 314 314 316 316 317 317 317 316 316 317 317 317 317 316 317 318 317 320 321 321 323 324 323 322 321 319 317 315 316 318 317 317 317 315 315 317 317 318 318 317 318 319 319 320 320 319 318 321 323 323 324 324 322 323 323 320 321 326 326 321 320 322 324 324 325 327 327 321 319 327 329 324 322 323 317 313 313 311 310 310 309 308 307 307 307 307 307
317 316 316 316 316 317 317 317 317 317 317 317 317 317 315 317 317 317 321 323 323 325 324 321 320 320 319 317 315 317 320 319 317 316 315 316 316 316 317 318 318 318 317 319 322 322 319 319 322 324 324 326 324 321 322 322 321 324 328 328 323 321 324 324 324 326 327 325 322 320 323 326 324 323 322 318 315 314 311 309 310 309 307 306 306 306 305 305
318 316 317 317 316 317 317 317 318 317 317 317 317 316 316 317 317 318 324 326 326 324 323 319 317 317 318 316 316 318 318 318 319 316 312 313 315 315 317 317 318 318 316 319 324 323 320 321 324 324 324 325 322 322 325 322 322 325 326 325 324 323 324 324 324 327 326 325 326 323 323 326 326 324 321 319 317 317 314 310 309 309 307 306 306 306 305 304
319 317 317 317 317 317 317 318 318 317 317 316 316 317 317 316 317 321 325 326 326 324 321 318 317 317 317 316 316 317 315 315 317 314 311 313 314 314 316 316 317 318 317 317 321 324 322 318 321 323 322 322 321 324 329 326 322 324 325 324 324 324 323 323 324 326 324 325 326 325 324 327 328 325 322 321 320 320 317 313 310 309 307 306 306 306 305 304
320 318 318 317 317 317 317 318 317 317 317 315 315 317 316 317 319 323 326 326 326 323 318 317 319 318 317 317 317 317 316 314 313 312 313 314 313 313 314 315 315 318 320 320 320 320 317 314 317 320 320 319 319 319 322 325 324 323 324 324 323 322 322 322 322 323 324 325 325 325 324 325 328 329 324 321 321 321 320 315 311 309 307 306 306 305 304 304
320 319 318 317 318 318 317 318 317 317 316 314 315 316 318 321 322 326 327 324 322 323 317 317 320 318 318 319 319 318 317 315 312 313 315 314 314 314 315 317 317 319 322 323 322 319 316 317 319 318 316 317 319 319 318 319 321 322 323 324 324 323 321 322 322 322 325 327 325 324 323 324 327 329 323 320 319 319 319 315 311 310 307 306 306 304 303 303
321 320 319 318 318 318 317 318 318 317 315 314 315 317 321 325 325 327 328 323 322 325 320 319 320 319 318 320 321 319 318 316 314 315 316 315 316 315 316 319 319 321 324 322 322 323 320 320 321 319 317 317 321 322 318 317 319 322 324 325 327 326 324 325 325 324 326 326 321 320 323 325 326 324 321 320 317 317 318 315 311 309 307 306 305 303 303 302
321 320 320 319 318 318 317 318 318 317 315 314 316 320 323 324 325 326 327 326 325 325 322 321 320 320 320 322 323 320 319 318 315 315 317 316 317 316 316 318 318 322 326 323 322 326 325 323 322 320 318 318 320 321 320 320 319 321 323 325 328 329 328 330 328 326 328 325 320 318 321 325 326 323 321 319 315 314 315 315 312 309 306 306 304 303 303 302
322 321 320 319 319 318 318 318 318 317 316 315 318 321 322 323 325 325 324 325 324 322 321 321 321 321 321 323 323 320 320 320 316 316 319 318 318 319 318 318 318 321 324 323 324 325 327 328 324 320 319 318 318 319 322 321 318 319 320 322 326 328 331 333 330 329 330 325 320 319 322 328 329 322 316 313 311 310 312 312 310 308 306 305 304 303 303 302
321 321 320 319 319 318 318 317 318 317 316 317 320 321 321 322 324 324 323 323 321 320 320 321 322 323 323 324 323 319 321 322 317 317 320 320 320 320 319 318 317 319 322 324 326 325 326 330 324 319 319 318 317 319 320 321 319 319 320 322 324 326 328 330 327 324 325 324 321 322 325 326 322 316 311 309 309 308 310 311 309 307 306 304 304 303 303 302
321 320 319 318 318 318 318 317 318 317 316 318 321 321 321 322 323 323 322 320 321 321 321 322 324 325 325 325 323 321 322 322 319 320 321 321 321 321 321 320 318 318 321 323 327 327 328 329 323 318 318 316 318 321 320 322 323 321 322 323 323 324 324 326 324 320 321 325 324 322 324 322 318 317 312 309 309 308 309 310 308 306 305 304 304 303 302 302
320 319 318 318 318 318 318 317 318 317 317 319 321 321 321 321 321 321 320 319 320 321 322 324 325 326 326 327 324 322 323 323 320 321 322 321 322 322 322 322 320 318 320 321 326 329 329 327 321 319 320 316 316 320 321 322 322 321 323 322 322 324 323 322 325 324 324 327 326 323 324 323 323 322 314 309 310 309 308 310 308 306 305 304 304 303 303 302
319 318 318 318 318 318 317 317 317 316 317 319 320 320 320 319 319 320 321 321 321 321 322 323 324 325 326 327 326 323 323 324 321 320 323 322 323 323 321 322 322 319 319 321 324 327 327 327 321 318 319 316 313 317 321 320 318 319 321 321 322 326 325 323 324 326 327 327 326 326 325 323 323 323 318 313 312 310 308 309 308 306 305 304 304 304 303 302
318 318 319 318 318 318 317 316 316 316 318 319 318 319 319 318 317 318 321 323 322 323 322 322 323 324 324 325 326 323 322 323 321 320 323 323 323 324 321 322 323 321 319 320 323 324 325 328 324 317 316 315 314 317 321 321 317 316 317 319 322 323 324 324 323 325 328 327 327 328 328 327 324 322 323 318 312 310 309 308 308 306 305 305 304 304 303 303
318 320 321 319 318 318 317 316 316 317 319 318 317 317 318 319 318 317 320 323 324 324 323 323 323 323 324 323 324 324 322 322 322 321 323 323 322 323 321 320 323 322 320 320 322 323 324 327 327 319 315 316 317 318 319 320 318 316 317 320 321 320 321 323 323 323 325 326 328 327 327 330 323 317 320 319 313 311 309 308 308 306 305 305 304 304 303 303
318 322 322 319 318 318 316 316 317 319 319 317 316 316 317 319 319 318 320 322 325 325 324 325 325 325 326 324 324 325 323 323 323 321 322 322 321 324 323 321 322 322 321 322 322 323 323 324 325 320 316 316 318 317 317 318 319 317 317 318 319 319 320 323 324 323 321 324 327 326 328 331 321 313 315 318 316 313 310 309 309 307 306 305 305 305 304 303
319 322 322 319 318 317 316 317 318 319 318 316 316 316 316 318 319 319 320 322 324 324 322 323 325 326 328 327 327 327 323 323 323 322 323 322 322 325 325 322 321 321 322 322 321 323 325 324 324 321 317 316 317 317 317 318 319 319 318 317 319 319 319 322 325 325 323 323 324 324 328 329 318 311 312 313 315 315 311 310 309 307 306 306 306 305 304 304
319 322 320 318 318 316 316 319 319 318 315 313 314 316 316 317 319 320 321 322 322 322 322 323 323 324 325 325 327 328 325 324 324 323 322 323 323 322 320 323 324 321 321 322 320 322 324 324 324 324 320 317 316 317 317 316 316 319 319 318 320 319 319 321 323 323 323 323 323 324 326 323 315 312 311 309 311 313 312 311 309 308 307 306 307 306 305 304
319 319 318 317 317 316 318 319 318 316 314 313 314 316 316 317 318 319 321 322 322 321 321 322 322 322 324 325 325 325 325 324 325 324 323 326 324 317 316 322 324 321 321 323 322 321 322 323 324 325 325 323 320 319 319 317 315 317 318 318 318 319 321 322 321 321 322 324 324 324 325 323 316 312 310 308 308 310 311 311 310 309 308 307 307 307 305 305
318 318 317 316 316 317 320 320 318 315 313 313 314 315 316 317 317 318 319 321 322 322 321 322 322 321 324 325 323 323 323 323 324 324 322 325 322 315 315 318 320 321 322 323 324 323 323 323 323 325 326 327 326 324 322 319 316 315 316 317 318 319 321 320 320 321 322 323 323 323 324 322 315 312 311 310 309 308 309 310 311 311 310 308 307 307 306 305
317 318 317 316 315 317 320 320 318 316 314 313 314 315 315 316 316 317 318 319 321 321 321 324 325 322 323 324 323 323 323 322 323 324 322 325 323 315 313 314 316 319 319 320 323 322 321 322 321 323 325 326 326 326 323 321 318 317 317 317 317 318 320 320 319 320 322 324 323 322 324 322 316 313 313 312 311 309 307 308 310 311 310 309 308 307 306 305
315 318 319 319 317 316 318 319 318 317 316 315 315 315 315 316 317 317 317 317 319 320 321 323 324 323 323 323 322 322 323 322 322 322 321 323 321 313 310 312 314 316 315 316 319 320 321 321 320 322 323 323 323 322 321 321 320 318 317 317 317 317 319 320 320 320 323 325 323 321 324 325 320 316 315 314 313 311 308 307 308 309 309 309 309 307 307 305
312 316 317 318 319 318 316 317 318 318 317 316 316 316 316 315 316 318 318 317 317 319 321 321 322 322 322 322 322 323 323 323 323 321 320 322 319 315 313 313 313 313 314 314 316 318 320 320 320 321 321 322 322 320 320 322 321 319 318 317 316 317 318 319 319 320 322 322 322 324 325 324 320 317 315 315 313 312 311 308 307 308 308 308 308 307 307 305
309 312 311 312 316 318 316 317 318 318 318 317 316 317 317 317 317 317 318 318 318 319 320 321 321 321 321 321 322 322 322 323 323 321 320 320 319 317 317 316 314 312 313 315 315 317 319 319 319 320 320 321 322 320 319 320 320 320 320 318 316 316 317 318 318 318 320 320 321 323 324 323 321 317 315 316 315 313 313 310 308 308 308 307 307 306 306 305
309 310 310 311 312 313 314 316 316 316 318 318 318 318 318 318 318 317 318 319 319 319 319 320 320 320 321 321 322 323 322 322 323 322 320 319 318 317 317 318 316 312 312 315 315 315 318 318 318 320 320 320 320 318 317 318 318 319 321 320 318 317 317 317 317 316 318 319 318 319 320 321 321 319 319 319 317 315 314 312 310 309 307 307 306 306 305 304
303 303 305 310 312 311 312 314 314 316 316 316 317 317 317 319 319 318 319 319 319 319 319 320 319 319 320 320 321 322 320 320 322 321 319 318 318 317 317 317 317 314 312 314 315 315 316 317 318 318 319 320 319 317 317 317 317 318 319 319 318 318 317 316 316 316 316 317 317 318 318 319 319 321 320 316 315 316 315 313 311 309 307 307 306 306 304 303
301 301 302 307 311 312 312 313 313 315 315 314 314 314 315 317 317 319 320 318 317 317 318 319 319 319 320 320 319 320 321 320 320 318 317 318 318 318 317 317 316 315 313 313 315 315 315 316 316 317 320 320 316 314 315 316 318 319 319 318 317 317 318 317 317 317 315 315 317 317 317 319 319 320 318 315 314 315 314 312 311 310 309 307 306 305 304 303
Wind_Speed
2 2 2 2 1 1 2 2 3 3 4 4 4 4 4 5 4 4 4 4 4 4 4 4 4 4 4 6 7 9 9 8 6 3 1 0 2 4 4 4 4 5 4 5 5 5 5 3 1 3 4 2 1 1 1 2 1 1 1 1 3 1 2 1 2 3 4 5 4 4 1 1 3 2 2 2 2 4 2 8 7 8 10 9 8 7 8 10
1 1 2 2 1 1 1 2 2 3 3 4 4 4 4 5 5 5 4 4 4 4 4 4 4 4 5 6 7 9 10 8 6 1 3 1 5 6 6 6 5 5 5 6 7 8 6 2 3 5 4 1 0 0 1 1 1 0 2 1 1 2 2 3 5 4 1 5 5 4 3 3 1 2 1 1 3 5 2 6 7 8 9 8 10 9 10 12
1 1 1 1 1 0 1 1 2 2 2 2 3 3 4 4 4 4 4 3 3 4 4 4 4 4 5 6 7 10 10 6 4 2 4 5 8 7 7 7 6 6 6 7 8 8 7 5 5 5 3 1 1 0 1 1 1 0 1 2 2 3 3 4 6 5 5 5 3 4 4 1 1 2 1 2 3 2 1 4 5 7 6 6 7 9 10 11
2 2 1 1 1 0 1 1 2 2 2 2 3 3 3 3 3 3 3 3 3 4 4 4 4 4 5 6 7 9 8 3 1 3 7 9 9 8 8 7 6 5 6 6 5 6 7 7 5 4 3 1 2 1 1 2 2 1 1 1 2 2 2 4 5 6 5 5 3 3 3 1 2 3 0 2 4 1 3 4 4 6 5 5 5 7 10 10
1 1 1 1 1 1 1 2 1 1 1 2 3 3 3 2 2 2 3 3 3 3 3 4 3 4 5 6 7 8 5 1 2 5 9 10 9 9 7 6 5 5 6 4 5 6 7 7 4 3 2 1 3 1 1 3 1 1 1 3 4 3 2 4 6 6 4 3 3 1 1 1 2 0 3 3 2 1 3 3 5 6 5 5 5 6 9 9
2 2 1 1 1 2 2 2 2 2 2 2 3 2 3 3 3 2 3 3 3 3 3 3 3 4 4 5 7 6 3 0 4 8 9 9 8 8 6 4 4 5 5 3 5 5 6 4 3 3 2 1 1 2 2 2 1 1 0 3 4 3 2 3 4 4 2 1 1 1 1 2 2 3 3 1 2 3 4 4 5 5 5 6 6 7 7 7
4 3 3 2 3 2 3 3 3 3 3 3 3 2 3 3 3 2 2 3 3 3 3 3 3 4 4 4 6 4 2 1 4 9 9 8 7 6 4 3 2 5 4 4 5 4 4 4 4 2 3 2 1 3 2 1 1 1 1 3 4 4 2 3 4 3 1 2 2 1 2 2 3 3 2 3 6 6 6 6 6 7 7 7 6 7 7 7
5 5 4 3 4 4 4 4 3 4 4 4 4 3 4 4 4 3 2 3 3 3 3 3 3 3 4 4 3 2 3 1 5 9 9 7 5 4 3 1 2 4 3 4 5 5 4 4 4 2 3 2 2 1 1 1 2 1 2 3 3 2 1 3 4 4 3 3 3 1 1 5 5 2 0 5 8 6 6 6 6 7 6 6 5 5 6 7
7 6 5 4 5 4 4 4 3 4 5 6 6 5 5 5 5 4 3 3 3 3 3 2 2 2 3 4 3 2 1 4 7 9 9 6 5 4 2 1 2 2 3 2 3 5 3 3 4 4 4 2 3 2 2 1 1 1 4 3 1 2 3 4 5 5 5 4 3 2 4 7 4 2 2 6 9 7 7 6 5 5 5 5 4 5 6 6
8 7 6 5 5 3 3 3 3 4 6 6 7 7 6 6 5 4 4 3 3 3 2 2 2 2 2 3 3 2 2 6 7 8 7 6 4 3 2 0 1 2 3 1 2 4 3 4 4 3 3 2 1 1 2 1 1 2 4 4 4 5 5 4 5 6 5 5 5 5 6 5 2 2 2 5 8 7 7 6 5 5 5 5 4 4 6 7
9 8 7 6 4 1 3 4 5 6 7 7 8 8 7 6 5 4 4 3 3 3 2 2 2 2 3 3 3 2 3 6 6 6 6 6 5 5 4 3 1 1 3 2 1 3 4 5 5 3 2 2 1 1 2 1 1 1 2 5 6 7 7 6 6 6 4 3 5 6 6 2 4 1 3 7 8 7 8 7 6 5 5 5 5 4 5 7
10 9 8 6 3 1 3 4 6 8 8 8 8 8 7 6 6 4 4 3 3 2 2 2 2 2 3 3 3 3 6 7 6 6 6 6 7 6 5 4 3 2 2 3 1 1 3 4 5 4 1 2 2 1 2 0 1 1 1 4 6 6 7 9 8 5 4 2 4 4 3 5 5 3 5 9 7 7 7 7 6 5 5 5 4 4 4 6
11 10 8 6 4 2 3 3 6 8 8 8 9 8 7 6 5 4 3 3 2 2 1 2 2 1 2 2 3 6 7 7 6 6 6 6 5 5 4 4 4 4 1 3 3 1 2 1 3 4 2 2 2 0 0 1 1 2 3 3 4 5 5 7 7 5 4 3 4 5 1 5 6 6 7 8 7 8 7 6 6 5 5 4 4 4 4 5
12 12 9 7 5 5 4 5 6 8 8 9 10 10 8 6 5 4 2 2 1 1 1 2 3 1 1 1 2 5 6 5 5 6 6 6 5 4 3 3 3 2 2 0 1 1 1 1 3 3 1 1 1 1 2 2 2 2 3 2 2 2 2 1 5 7 5 2 4 5 2 4 4 7 7 7 7 8 7 7 6 5 5 4 4 5 4 5
13 12 10 9 6 6 6 5 4 6 9 11 11 11 7 4 3 2 1 1 1 1 1 2 4 2 2 2 1 2 4 4 5 7 8 8 5 4 5 4 3 2 2 2 2 2 2 1 2 2 1 1 1 1 3 3 3 3 2 2 2 3 3 2 4 7 5 1 4 5 2 2 4 6 6 7 7 8 7 7 7 6 6 5 5 5 5 5
14 13 12 11 9 9 7 4 4 6 9 11 11 9 4 1 0 2 2 2 2 3 2 1 4 3 3 2 2 1 3 4 7 9 9 10 6 5 8 6 4 4 3 3 3 4 3 2 1 1 0 1 2 3 3 3 3 3 3 3 3 3 3 3 3 5 3 3 5 6 3 1 3 6 7 7 8 8 6 7 8 6 6 6 5 5 5 5
15 14 13 11 11 11 7 4 4 5 7 10 10 7 1 3 4 4 3 3 4 4 2 1 2 4 2 1 2 2 4 6 9 10 10 11 7 6 9 6 5 6 5 5 3 3 2 1 1 1 2 2 3 3 2 3 4 3 4 3 5 5 4 2 1 3 4 4 5 7 6 5 3 8 8 8 9 9 7 7 8 7 6 5 5 5 5 6
16 16 15 12 12 11 8 5 4 4 6 10 8 2 3 4 5 5 3 5 5 3 1 3 2 3 3 4 3 3 7 9 10 9 9 11 8 7 7 5 6 7 6 4 2 3 2 1 2 1 2 3 4 4 3 4 4 4 2 2 3 4 5 4 1 3 6 4 5 6 7 8 5 8 8 8 9 9 8 7 7 7 6 6 5 5 5 6
16 16 16 15 13 11 9 6 4 4 6 6 2 4 5 4 2 2 3 4 4 2 1 3 5 1 1 5 5 6 9 11 10 7 8 10 8 7 6 4 5 6 4 3 3 4 3 1 2 1 3 5 5 6 6 6 6 6 3 1 3 3 4 3 2 4 5 3 6 6 6 8 5 7 8 8 8 8 7 6 7 6 6 6 5 5 5 6
16 16 16 15 13 11 9 7 4 3 4 2 2 2 1 1 1 2 4 6 6 7 4 5 10 3 2 5 8 9 9 8 5 4 8 10 10 8 5 4 4 3 3 3 4 3 3 3 4 5 7 7 7 9 10 8 7 6 3 2 5 4 5 4 1 3 1 1 6 6 6 8 7 6 9 9 7 7 7 6 7 6 7 6 6 6 6 6
17 17 16 15 14 12 11 7 5 2 2 1 1 2 0 1 1 1 2 7 12 15 11 6 11 7 1 7 12 13 7 2 2 5 10 12 11 9 5 5 4 3 5 5 3 2 1 5 6 8 9 8 8 7 8 9 8 7 3 4 5 3 5 5 2 3 2 1 4 6 7 9 9 8 7 10 8 9 10 9 9 8 7 6 6 7 6 6
18 19 17 16 15 13 11 8 9 6 2 2 3 4 2 3 1 3 1 4 9 16 15 11 12 8 3 8 13 11 3 2 4 5 11 11 9 7 5 6 5 4 6 6 3 2 2 7 8 10 9 8 7 3 3 4 5 5 3 3 4 3 5 4 2 3 2 1 3 5 7 7 8 8 5 11 11 9 8 8 8 8 8 6 6 7 6 7
19 19 19 17 15 15 12 11 12 9 6 5 5 4 2 2 3 4 1 3 5 11 12 11 12 9 7 7 11 10 4 6 6 7 14 12 7 5 5 7 7 6 6 7 6 4 5 6 9 11 9 8 7 3 1 3 2 3 3 3 4 4 4 3 1 3 3 3 4 4 6 7 7 10 8 8 6 2 2 3 4 4 6 7 7 7 7 8
18 20 21 18 16 15 11 12 13 10 9 9 9 8 3 1 3 4 1 3 5 7 10 14 13 10 10 8 13 13 6 7 6 8 17 14 6 4 5 7 8 7 6 9 10 8 8 5 4 10 10 9 7 4 4 3 3 5 6 6 5 4 6 6 3 3 3 4 4 3 6 7 7 12 10 2 4 3 4 4 4 3 3 5 6 7 7 7
18 19 21 20 16 13 11 12 12 9 9 9 12 13 9 5 3 3 1 3 5 3 5 12 9 8 10 10 15 13 5 8 7 8 19 17 9 5 4 5 6 7 8 10 10 9 11 6 3 7 8 7 7 6 6 6 4 5 7 9 9 7 7 6 1 2 1 3 2 2 3 4 4 9 8 4 3 4 5 5 5 4 3 5 5 6 6 6
19 17 19 20 16 14 13 10 11 11 9 10 11 11 11 9 2 1 0 2 6 2 2 6 6 9 12 10 12 8 2 7 5 13 22 18 12 5 3 5 3 5 7 7 7 5 4 4 5 7 7 7 6 5 6 7 4 4 4 5 9 8 5 4 3 2 1 3 1 3 2 5 4 4 4 5 6 6 6 6 7 7 6 5 6 5 5 5
22 20 20 21 18 19 14 6 10 14 7 9 12 9 11 11 4 3 1 2 6 3 5 3 3 7 9 12 15 7 2 3 6 11 13 11 9 2 2 7 4 4 3 1 5 2 4 5 5 6 6 6 6 5 6 8 5 4 4 3 3 4 2 1 2 2 3 3 2 4 3 5 7 6 6 7 7 7 7 7 7 8 8 7 7 7 7 6
25 24 24 23 22 24 16 7 12 16 7 4 10 12 11 11 7 2 2 3 4 4 5 2 1 2 5 12 15 7 3 6 6 3 2 2 3 2 4 9 6 6 4 4 6 1 3 7 7 8 6 5 5 3 6 9 5 2 1 4 5 3 1 0 1 3 3 4 4 5 4 4 7 5 6 8 7 8 9 10 10 9 9 8 8 7 8 7
27 27 27 25 24 25 20 11 11 15 12 6 8 14 12 9 6 1 1 4 2 3 3 2 2 3 7 11 12 6 4 3 2 1 2 2 1 2 3 6 4 6 7 9 9 1 1 3 4 7 7 5 3 2 1 6 6 3 3 6 6 3 2 1 2 1 1 4 5 5 5 4 6 4 6 6 6 9 9 8 9 10 9 8 8 8 8 7
30 29 29 27 26 27 25 18 13 15 16 8 7 14 13 6 4 3 3 4 2 1 2 1 2 6 11 11 8 6 5 2 2 2 2 1 1 3 1 1 2 3 3 7 8 1 2 1 0 2 2 3 5 5 5 2 6 6 4 5 4 2 3 2 1 2 0 6 6 8 9 6 5 3 5 5 4 6 6 6 7 9 10 9 8 8 8 7
32 31 31 30 29 30 24 16 16 18 16 9 8 13 11 2 1 5 7 2 3 1 3 2 4 9 14 13 8 8 6 4 4 6 4 3 1 1 1 1 0 2 2 4 5 1 3 2 1 0 1 3 6 4 5 5 3 5 4 4 3 1 3 2 1 2 2 7 4 8 11 10 8 4 2 2 2 1 5 8 10 11 11 10 8 8 8 7
34 33 34 34 33 32 25 17 21 22 15 11 10 9 5 1 1 5 4 1 1 3 6 5 7 10 13 13 9 10 9 6 6 7 6 5 5 5 7 6 5 4 4 5 4 1 3 4 4 1 2 3 5 4 4 5 2 3 5 5 4 1 0 1 2 3 5 6 3 2 5 8 8 6 5 6 2 3 2 6 12 13 12 11 10 9 8 7
36 35 37 38 36 36 30 23 26 24 17 16 12 4 2 4 6 8 7 4 1 1 4 7 9 11 13 10 7 8 7 4 7 7 5 5 5 6 8 7 7 5 2 5 5 2 2 4 6 4 2 4 8 6 3 1 3 6 6 6 5 4 3 4 4 3 5 5 3 2 2 2 4 5 8 6 5 3 3 3 10 12 12 11 10 10 8 9
39 38 41 43 42 39 33 28 29 28 23 18 9 4 6 6 7 10 12 9 2 1 2 5 8 10 11 8 6 9 6 2 8 8 5 6 5 5 7 8 11 7 0 3 4 5 4 4 7 9 3 7 12 10 7 6 6 8 6 6 6 5 4 4 4 3 3 1 3 3 2 3 3 2 2 2 5 4 5 5 9 9 10 10 9 9 9 9
41 42 42 41 40 38 35 31 32 32 24 15 7 7 10 9 7 8 11 10 5 2 3 5 7 8 8 5 4 8 5 2 7 7 5 7 6 7 8 9 13 9 3 4 2 5 7 6 5 7 4 11 13 9 7 7 4 5 4 5 6 4 3 2 1 2 1 1 2 2 3 4 3 0 2 4 5 4 4 5 10 8 9 10 8 9 9 8
36 36 34 32 32 36 37 33 35 35 23 11 8 8 10 9 5 4 6 9 9 5 6 6 6 6 7 4 3 6 3 2 7 7 4 7 6 8 8 7 12 13 8 7 2 3 6 3 1 3 2 7 7 6 6 5 3 3 4 6 4 2 3 3 1 2 2 3 3 4 4 4 1 1 2 5 4 3 0 3 9 9 9 10 8 8 9 8
28 24 22 26 31 37 40 38 39 36 19 9 11 9 8 8 4 3 5 8 10 8 6 5 5 6 7 5 4 7 4 3 8 6 3 5 5 8 11 6 11 16 14 9 3 2 5 2 2 2 2 1 2 1 2 2 2 4 5 6 3 4 1 1 1 1 2 5 4 5 6 4 3 3 2 5 5 5 5 5 7 8 10 10 8 8 9 9
21 13 12 25 36 39 41 42 39 27 11 8 12 9 7 8 7 4 3 5 9 10 8 7 6 7 7 6 5 9 8 4 8 6 4 5 3 7 13 8 9 16 17 12 4 2 4 3 3 1 1 1 3 0 1 3 3 3 2 3 3 1 2 3 3 2 4 5 4 4 7 6 7 6 4 7 10 10 9 8 8 10 11 10 9 9 9 9
15 5 6 21 37 40 43 44 32 15 7 10 12 9 7 7 8 8 5 3 4 8 10 8 7 7 8 8 6 9 11 8 9 7 5 6 4 7 13 10 8 14 17 14 8 4 3 4 3 3 2 2 1 1 4 2 1 2 1 2 1 2 3 4 3 2 3 4 4 3 4 5 6 7 9 12 13 12 12 11 11 11 11 10 9 10 10 10
12 3 3 17 34 41 46 39 21 9 9 11 10 7 5 5 8 11 10 5 1 3 7 8 9 8 9 10 8 7 10 9 10 8 6 7 5 5 11 11 9 12 15 14 10 5 2 3 4 2 2 2 2 4 9 10 7 4 3 4 4 2 1 1 2 2 3 3 3 3 4 5 4 2 8 12 12 13 15 14 12 11 11 10 10 10 11 11
8 5 3 17 36 43 37 21 9 8 9 8 10 8 5 3 6 11 11 8 3 1 1 3 6 5 5 8 8 6 7 8 8 8 6 8 7 5 7 10 10 10 11 10 10 6 3 3 4 2 2 4 4 5 7 8 9 9 8 8 9 7 4 2 3 4 3 2 3 4 5 6 3 2 0 5 7 11 14 13 11 11 11 11 10 11 12 11
2 5 6 24 42 41 24 7 4 6 5 6 8 6 5 2 2 9 11 9 7 2 2 1 1 2 2 3 2 3 6 6 8 8 6 8 10 6 2 3 7 12 10 7 9 7 3 2 4 3 2 4 2 0 1 1 1 3 5 6 6 6 7 6 5 5 4 3 1 1 4 5 3 2 4 4 3 6 9 10 9 10 11 11 10 11 11 10
2 3 8 31 49 38 15 6 7 5 4 4 3 3 5 4 2 6 9 9 8 5 3 2 2 4 4 2 2 2 5 5 7 9 8 7 6 2 4 5 2 10 9 4 5 4 4 2 4 2 1 0 0 1 2 3 2 2 4 5 6 8 8 6 3 2 4 4 2 1 4 5 2 2 3 4 4 5 7 9 10 9 9 9 9 10 10 9
2 1 2 26 48 35 10 6 9 7 6 5 4 6 6 4 6 8 8 10 9 6 7 7 5 5 4 2 3 2 4 3 5 6 5 4 2 3 5 6 3 5 6 2 2 6 4 3 4 2 2 1 1 1 1 1 2 4 4 6 9 10 8 3 0 1 3 7 8 5 6 4 2 2 1 1 3 5 5 7 9 9 8 9 8 8 9 9
3 1 2 11 28 23 9 7 9 8 7 8 9 12 9 6 8 10 9 9 8 7 7 6 6 5 2 2 2 3 4 4 3 2 1 2 2 2 4 5 4 1 1 3 2 4 5 4 6 7 8 8 5 4 4 4 3 3 5 10 12 12 12 7 3 3 6 6 9 8 7 3 2 2 3 3 3 5 4 4 7 7 8 9 8 8 9 10
3 4 1 2 7 8 6 7 10 9 9 10 8 10 13 11 8 8 10 9 8 9 7 2 3 5 4 4 5 8 9 7 3 2 2 3 2 1 2 3 3 2 3 5 4 0 2 2 8 12 13 10 6 4 3 5 7 7 11 14 15 16 14 8 6 9 6 5 7 11 7 4 4 5 5 5 5 6 6 5 6 6 7 8 8 7 7 8
3 4 5 4 3 4 4 4 9 11 12 13 8 7 14 16 9 7 10 11 9 10 8 4 5 8 9 11 11 10 11 9 6 7 9 5 2 1 0 1 1 2 3 3 4 2 3 4 10 13 13 8 5 3 2 4 10 14 15 16 17 16 15 13 13 11 6 5 9 8 9 7 8 7 7 7 7 7 7 8 7 7 7 7 7 7 8 8
2 2 3 2 1 4 6 4 8 12 14 14 9 7 13 16 13 9 10 11 9 9 7 6 10 16 15 14 11 8 9 10 9 12 12 6 3 2 1 1 2 3 5 2 2 3 4 6 8 9 12 8 3 1 2 1 4 8 12 17 18 17 18 19 19 14 10 9 10 7 12 13 8 8 9 8 9 9 8 9 8 7 7 7 8 9 9 9
0 1 2 1 0 3 5 3 5 9 13 14 11 10 12 16 17 14 9 7 7 10 11 11 15 18 17 14 11 8 9 10 11 13 11 7 5 5 3 2 2 2 4 4 2 2 3 6 5 6 10 11 5 2 1 2 3 4 7 14 17 20 21 21 21 17 12 12 9 5 7 10 5 8 9 6 7 6 6 7 7 8 8 9 9 10 10 10
1 1 0 1 0 0 1 2 4 5 7 9 10 11 13 16 18 15 10 9 9 10 12 17 19 17 16 15 13 12 15 16 14 12 9 9 7 6 6 4 3 3 3 4 3 3 4 5 4 4 6 9 6 3 1 1 1 3 7 9 12 16 18 17 18 14 10 13 10 1 5 8 4 6 4 3 4 6 7 7 7 8 9 10 9 10 10 10
1 1 1 1 2 3 2 2 4 5 5 4 5 6 10 16 16 12 10 11 12 11 12 20 23 15 11 13 16 19 20 16 13 9 10 12 10 7 6 5 6 7 5 5 3 4 5 3 1 4 5 8 6 5 4 3 3 4 12 14 11 9 12 14 13 10 11 14 11 7 8 7 4 5 5 4 5 7 7 7 7 6 8 10 11 11 11 10
1 2 2 1 2 4 4 2 4 5 5 5 6 4 5 7 6 7 6 5 5 5 5 12 17 11 8 13 19 21 16 9 6 4 6 7 4 4 5 5 7 9 8 6 3 3 6 4 2 4 6 6 4 6 6 5 2 7 14 13 10 8 9 10 9 10 13 12 9 9 9 5 5 6 5 4 4 6 7 6 6 7 8 9 10 10 10 10
Wind_Direction
166 163 166 166 175 198 213 218 222 207 201 205 206 205 204 203 199 204 213 216 222 227 236 251 264 279 296 306 318 321 326 333 309 295 336 357 98 125 126 100 93 81 62 31 7 330 293 237 211 310 269 226 347 359 295 318 24 343 293 234 268 163 103 305 63 97 146 131 133 134 35 4 132 144 94 92 216 229 159 95 86 73 80 86 80 63 52 50
184 190 185 174 181 202 217 218 224 225 220 215 214 210 207 209 210 211 212 218 226 233 241 254 266 280 299 311 326 325 332 336 303 349 51 120 141 127 112 101 89 76 50 19 358 339 327 344 3 312 279 223 157 43 257 330 58 299 298 291 323 46 49 348 55 65 52 106 121 115 63 12 85 103 96 249 216 213 180 115 116 99 97 89 70 57 54 53
207 212 198 174 186 212 243 234 215 214 224 233 228 218 213 215 220 219 215 220 225 236 249 256 270 286 305 318 327 330 339 332 289 86 87 133 141 126 110 101 84 73 53 22 354 343 337 331 329 308 292 270 113 138 227 26 351 98 359 336 42 70 72 30 60 68 24 51 105 109 83 23 111 95 133 283 298 263 101 94 121 112 97 82 69 55 54 55
212 214 204 186 230 287 314 290 241 211 212 247 237 226 228 224 230 230 222 223 228 239 250 256 275 293 307 322 325 334 342 316 270 120 132 137 139 130 117 102 81 67 47 20 335 333 324 302 301 301 292 262 133 204 207 87 353 356 23 34 63 27 77 67 62 69 42 24 21 65 60 303 110 83 244 281 310 339 79 46 61 88 78 72 74 60 57 56
222 223 228 225 269 319 333 327 320 270 260 272 251 234 233 238 247 241 228 228 235 241 248 259 279 294 308 321 318 332 340 281 126 144 148 144 146 139 127 104 81 50 44 19 323 327 309 289 287 291 274 221 148 185 53 78 21 328 39 84 72 351 40 94 71 60 49 37 19 28 359 330 65 30 230 226 265 126 87 61 67 78 78 69 66 68 64 56
229 238 250 261 272 310 323 321 329 313 301 294 278 257 246 250 248 243 242 233 233 242 249 264 285 298 310 314 309 321 322 267 152 168 159 151 150 146 142 115 73 39 40 347 316 314 300 289 275 270 267 258 130 101 69 76 51 337 29 82 59 13 38 94 83 62 25 12 270 270 340 14 1 294 256 172 101 111 95 83 87 84 87 85 75 71 66 59
233 237 256 273 267 286 302 298 304 307 310 305 298 279 259 257 246 245 249 240 238 247 255 270 291 304 312 310 308 295 252 86 146 173 169 162 156 153 154 122 47 36 23 319 312 310 318 302 279 298 299 285 41 77 63 10 200 254 254 106 59 9 11 77 98 107 353 286 268 41 12 308 279 286 288 105 104 113 109 95 98 98 94 91 79 74 73 67
235 238 250 266 271 294 308 301 310 318 315 305 293 272 255 255 248 243 248 252 242 244 260 276 296 314 322 317 316 271 228 116 143 168 171 171 163 163 153 75 356 26 358 323 328 331 342 303 296 354 321 326 7 43 70 320 231 252 350 89 69 349 300 112 124 158 197 250 274 20 317 264 248 248 59 126 122 119 119 111 112 112 100 89 78 78 80 71
232 238 244 249 259 290 326 314 308 312 309 301 289 274 260 254 250 245 245 258 247 244 258 270 290 310 324 315 300 283 206 136 149 162 170 177 179 186 162 41 353 3 322 329 328 310 331 328 347 10 339 353 360 6 84 47 298 354 14 9 9 248 237 170 168 196 198 211 222 221 245 252 235 109 74 125 127 126 127 127 130 125 108 97 87 78 76 74
231 236 238 245 249 264 344 314 302 311 302 294 288 280 271 264 260 251 248 262 258 252 251 268 279 267 308 300 262 260 144 138 147 157 174 185 188 188 169 155 335 311 299 353 331 305 338 360 353 3 357 332 308 33 68 65 269 338 8 327 289 265 256 190 200 225 204 198 183 195 251 252 126 116 214 130 129 138 132 137 147 131 114 108 99 84 76 74
235 235 234 242 248 279 354 309 299 310 305 299 291 281 276 275 269 256 258 272 271 263 250 268 266 257 299 292 258 243 156 149 148 157 176 186 180 171 176 182 164 297 303 293 265 334 356 1 339 326 28 346 305 108 82 26 249 356 3 296 272 253 247 213 222 232 201 197 177 191 256 246 105 187 203 135 141 151 139 144 153 136 118 115 107 97 80 76
233 233 230 233 241 325 344 307 295 308 318 317 305 287 275 274 273 265 269 277 276 266 252 259 243 263 308 278 249 207 165 159 158 167 179 181 179 180 190 191 169 152 337 330 65 79 329 345 331 294 354 1 319 141 110 324 267 330 287 277 285 264 244 218 208 204 184 185 165 164 267 238 192 191 132 131 153 157 145 147 149 139 126 124 114 104 84 81
235 230 223 221 230 265 301 287 288 308 327 326 321 307 281 268 268 266 276 285 278 263 251 254 231 192 324 277 202 180 171 164 166 174 181 178 176 182 193 192 182 172 148 4 48 83 262 305 316 298 6 3 317 155 197 216 211 280 238 222 291 293 263 210 176 149 150 160 164 145 289 250 192 150 126 139 161 159 153 152 152 146 135 136 128 117 99 83
240 233 215 202 215 239 256 259 280 311 321 320 324 315 292 269 256 257 271 270 257 267 241 224 209 155 287 261 162 177 180 169 168 172 174 161 145 143 152 162 165 180 187 106 17 251 209 210 298 298 47 15 344 118 258 219 185 259 267 201 215 276 282 193 137 141 151 183 175 155 258 266 146 136 149 157 166 166 163 159 159 153 145 145 138 134 118 96
239 236 214 195 206 225 232 251 284 307 307 311 319 312 295 266 245 235 218 202 172 220 196 201 202 182 292 248 168 169 183 178 169 173 172 155 152 149 137 138 131 139 165 156 192 180 153 195 279 287 97 100 154 217 267 245 203 203 235 264 224 196 215 170 149 168 165 246 196 174 245 246 144 153 161 162 174 181 176 162 160 159 155 154 152 149 130 116
233 234 222 202 204 219 221 247 283 287 298 312 318 307 284 234 173 156 154 145 144 163 139 139 197 205 301 241 158 152 183 181 169 178 177 160 162 151 134 132 125 126 133 132 146 143 150 227 276 347 171 175 205 218 259 270 250 202 184 251 253 214 211 156 179 212 159 135 192 201 250 289 147 164 165 172 183 191 190 166 161 165 159 157 157 150 136 134
229 228 230 210 202 210 209 223 257 275 298 315 317 303 242 107 108 124 131 140 135 145 157 335 208 203 266 175 179 204 167 164 168 177 182 166 151 136 139 141 138 136 125 121 138 150 170 211 112 11 221 214 234 209 227 252 250 231 187 213 246 239 234 191 207 242 183 179 211 208 236 265 178 163 173 186 186 191 198 176 163 163 158 155 150 151 153 147
229 221 225 221 208 204 197 206 243 273 300 314 317 321 99 95 116 111 108 141 126 103 304 302 255 223 232 191 165 125 128 147 161 167 184 178 158 154 165 161 145 148 142 131 170 180 177 181 138 265 243 212 224 198 194 213 228 262 224 204 257 259 249 240 170 181 183 206 242 210 223 248 201 166 181 194 191 196 202 180 160 159 159 157 155 159 153 136
230 220 220 223 212 198 191 195 226 270 299 316 21 81 73 69 103 125 160 173 142 132 266 198 196 212 152 164 127 92 114 138 151 157 180 180 167 173 187 173 157 167 166 150 193 187 165 149 148 212 237 212 210 203 210 225 247 284 308 286 294 306 279 280 103 166 179 192 237 229 234 252 223 177 182 194 194 203 208 171 155 162 159 161 163 159 147 128
229 221 220 220 204 190 189 190 204 259 309 328 86 55 35 111 217 180 193 215 218 241 281 171 190 222 83 132 120 109 115 130 145 157 167 166 159 165 184 186 171 195 210 169 173 175 153 180 195 205 218 218 216 213 222 238 258 280 310 292 282 286 276 281 143 166 147 167 229 238 249 260 258 213 187 185 188 204 210 172 164 173 163 168 164 154 145 123
227 220 219 212 195 187 188 189 197 204 325 275 198 258 287 70 238 149 175 225 229 241 265 229 208 230 132 132 143 141 127 133 180 158 161 163 161 158 171 188 172 195 227 199 153 62 152 208 217 214 219 232 237 231 228 230 242 258 266 276 276 263 265 271 177 155 78 61 245 256 264 261 263 253 186 164 181 205 206 185 180 179 165 166 158 151 136 114
226 220 214 203 193 190 189 200 212 208 208 213 232 253 330 19 5 23 355 250 232 227 241 248 239 241 148 145 163 165 153 174 159 157 168 172 177 177 167 180 190 195 207 201 148 76 234 232 228 222 229 239 242 259 269 251 243 242 241 265 267 260 273 280 127 142 116 99 257 267 275 266 265 271 209 174 190 206 202 184 175 171 164 164 156 150 137 128
227 217 207 201 197 196 200 213 214 205 192 194 216 234 294 11 49 37 241 276 270 219 216 228 235 229 190 164 169 177 194 186 177 180 179 175 182 198 177 175 202 213 198 198 188 182 216 233 225 219 230 238 227 198 216 290 285 234 229 242 248 245 259 268 158 180 182 209 265 296 291 270 266 269 240 189 177 144 92 98 107 136 154 160 157 150 146 148
227 214 203 201 200 203 215 214 201 195 196 207 225 215 193 310 353 24 211 266 269 225 208 205 212 218 201 171 169 183 207 205 199 179 178 178 164 182 197 183 200 218 209 201 201 219 233 239 205 200 213 222 215 194 187 217 246 229 219 220 240 235 227 238 215 175 193 227 238 285 295 267 239 242 237 156 85 99 106 98 82 73 105 118 130 142 152 155
223 212 199 196 199 203 208 199 188 191 198 215 237 227 213 231 297 348 339 273 247 251 221 202 202 212 193 157 163 175 198 220 218 168 172 181 167 153 200 193 201 217 215 206 204 234 245 234 165 185 202 196 200 215 186 180 232 245 220 212 220 234 244 259 288 80 354 291 215 161 284 272 229 229 220 151 154 180 159 164 169 161 128 119 134 145 147 147
215 206 195 192 195 192 189 191 187 187 198 221 239 235 216 205 210 305 330 297 255 251 130 178 174 186 178 152 155 147 173 228 204 154 168 185 183 158 195 188 193 223 217 211 211 241 241 182 162 178 183 174 195 231 183 167 211 253 257 221 208 223 258 292 338 33 269 281 260 142 211 271 293 273 226 170 194 197 175 194 194 178 170 168 171 163 149 146
213 204 195 192 194 189 179 172 181 177 191 233 229 219 203 191 194 254 185 311 264 175 134 177 178 176 165 156 159 141 172 177 108 141 163 186 191 144 203 189 173 218 225 222 224 225 128 148 170 165 161 176 197 221 183 165 183 237 299 353 154 189 250 272 300 254 239 304 280 169 172 271 281 258 217 177 187 203 193 203 203 184 181 182 181 169 161 162
214 208 201 196 200 199 187 161 173 180 190 213 197 196 189 180 192 223 161 258 264 128 131 193 160 146 136 156 166 152 141 135 116 155 103 114 186 90 207 207 190 190 191 204 221 269 122 168 173 163 170 199 200 215 191 173 176 226 328 47 82 92 55 63 238 244 277 324 263 186 150 258 273 244 192 173 190 218 209 202 201 187 177 181 179 165 161 161
216 210 206 202 205 208 206 199 181 186 190 143 148 181 175 169 182 68 86 227 238 105 132 154 130 126 132 160 181 162 115 103 99 256 51 81 78 55 208 227 223 197 199 215 222 302 67 188 166 169 193 205 162 32 311 175 177 191 113 75 71 75 68 75 228 227 291 274 237 189 162 219 273 248 172 175 215 230 217 196 191 180 169 175 171 157 156 154
219 212 207 202 203 205 210 216 208 191 186 157 134 164 158 151 161 136 186 219 270 76 98 103 149 153 150 160 182 171 141 68 61 121 134 145 37 9 275 289 316 246 222 231 235 215 114 138 56 183 202 162 116 56 11 87 136 146 125 87 78 77 68 59 234 120 336 262 219 185 187 199 270 260 172 186 238 223 190 161 166 168 164 168 163 154 155 151
223 216 207 203 203 201 200 209 204 186 175 160 135 147 149 115 111 182 195 231 329 148 122 119 146 151 163 163 166 182 169 122 130 149 150 153 136 336 230 145 6 282 280 262 253 181 133 139 95 33 33 107 104 72 13 20 101 133 125 111 103 47 45 37 250 151 215 256 214 182 197 202 232 267 168 197 295 109 145 154 164 167 165 165 158 154 155 153
224 221 212 207 206 201 199 199 185 174 169 168 153 143 146 125 217 224 211 62 341 181 146 155 164 164 176 176 172 179 169 148 161 166 157 163 178 190 200 189 163 176 237 235 222 196 218 204 152 81 308 170 132 101 32 358 335 155 132 129 130 148 339 238 207 185 223 251 266 201 209 214 233 255 234 211 157 69 88 158 165 164 162 160 154 154 155 157
225 223 215 211 208 202 204 200 182 178 179 171 161 150 142 168 204 215 205 180 213 225 130 148 170 173 177 185 180 166 162 157 164 166 153 159 184 206 218 219 195 197 220 189 188 189 242 224 167 155 293 202 175 167 168 241 212 184 160 151 162 175 220 237 209 216 234 240 281 279 227 255 271 263 247 220 133 76 6 120 151 155 155 155 153 155 156 159
226 222 216 214 210 205 204 197 186 185 176 158 156 173 168 195 213 198 202 209 195 61 123 147 165 173 182 196 170 153 160 158 160 163 152 158 189 214 214 222 218 222 56 159 189 178 211 262 185 173 178 181 191 201 182 150 172 195 178 171 188 179 191 219 203 226 242 245 299 274 187 190 214 253 270 84 82 38 4 86 125 133 141 143 146 152 156 162
225 220 216 212 207 203 199 191 185 182 169 154 170 185 182 206 212 192 202 204 184 150 141 152 157 168 194 209 151 160 171 142 162 168 175 183 199 205 198 206 207 203 177 190 203 171 209 260 182 165 160 170 190 210 167 128 161 208 177 187 214 195 179 209 191 175 139 350 283 234 232 221 200 155 81 92 79 44 9 94 120 124 134 139 150 159 160 164
225 219 215 207 201 198 194 187 181 176 166 162 186 192 204 214 196 174 186 184 185 164 132 157 168 173 193 183 157 187 179 99 164 177 199 204 221 218 206 195 191 195 192 187 189 163 195 265 115 114 119 167 189 215 176 150 177 186 173 197 205 138 168 210 270 83 101 277 253 176 245 281 253 270 154 133 110 95 280 145 132 137 145 149 162 168 166 168
224 216 210 204 201 196 191 186 179 172 165 180 197 199 214 219 197 166 165 178 191 174 148 180 185 177 191 179 174 191 169 114 169 182 180 190 231 220 207 198 181 194 205 197 212 197 174 243 282 165 157 194 313 275 167 64 94 141 182 193 118 52 31 176 255 350 165 250 256 176 208 225 196 235 174 148 162 171 197 185 148 150 159 164 172 172 171 168
218 208 209 208 202 194 189 186 178 168 160 193 209 215 212 212 210 194 164 174 188 184 191 214 195 177 192 195 178 174 174 162 172 185 176 176 225 199 191 201 182 192 206 201 215 249 177 212 274 295 108 11 344 327 130 13 42 113 183 199 128 116 229 158 187 236 198 229 274 205 205 205 202 207 169 184 199 185 185 188 173 171 174 174 173 171 172 163
201 198 235 210 199 191 186 183 175 164 166 189 210 224 215 210 204 198 202 197 188 191 199 210 203 197 203 208 193 167 177 182 167 179 192 183 216 191 179 189 190 192 198 193 203 230 187 200 250 319 11 112 26 231 180 197 343 48 3 255 149 159 193 177 181 201 187 221 271 234 212 221 217 196 180 195 200 180 177 186 189 184 180 179 173 173 175 169
178 202 254 192 192 189 183 178 172 170 179 188 209 213 200 209 200 201 211 210 210 196 198 203 203 206 208 211 215 183 182 191 175 184 204 182 197 205 180 181 189 190 189 191 201 205 174 209 220 306 338 141 164 211 193 187 189 185 182 197 197 173 138 171 222 201 175 206 242 246 255 248 237 206 185 190 190 180 179 184 188 184 178 181 179 177 178 174
161 218 207 174 184 183 177 176 180 180 178 195 218 215 207 220 197 202 211 214 227 41 93 205 205 210 214 211 217 189 177 198 190 189 206 194 200 216 189 184 183 176 174 187 203 197 178 200 189 171 222 206 210 217 202 196 196 194 191 192 192 183 160 176 227 210 184 196 199 214 260 254 243 334 356 163 170 179 180 178 177 175 176 180 182 182 182 178
168 229 174 168 176 173 168 188 208 178 183 198 206 206 206 233 201 199 205 210 226 234 57 11 203 197 227 209 205 162 165 197 203 196 212 211 205 208 243 228 180 165 157 179 205 196 128 147 189 182 194 214 239 160 143 196 240 236 228 204 185 187 189 195 214 199 182 211 178 148 276 267 240 317 4 52 91 143 158 162 164 170 177 178 179 180 180 177
249 241 157 168 172 166 163 203 188 186 220 197 196 196 191 219 223 199 202 202 211 217 206 225 190 200 224 184 102 140 172 194 210 208 215 221 215 229 328 328 191 166 162 176 204 172 76 122 187 185 8 358 351 48 59 47 49 290 257 206 191 207 203 200 214 176 181 207 169 145 262 260 262 325 359 32 51 95 132 151 159 166 173 175 176 173 171 170
217 278 140 173 171 165 168 202 178 199 211 174 202 212 197 227 218 202 203 196 194 203 213 221 208 208 231 166 126 180 185 191 231 227 218 225 254 346 337 336 351 169 169 161 183 165 155 170 154 149 277 247 163 234 292 282 192 219 225 205 212 211 192 187 106 79 225 202 168 184 239 244 277 311 359 51 79 103 125 144 152 162 169 172 171 165 166 168
158 178 334 186 176 171 185 195 174 193 195 176 200 208 201 223 219 210 212 201 196 196 205 225 215 201 206 108 133 215 204 199 239 265 331 272 261 355 346 347 2 44 131 9 332 180 173 173 163 181 217 222 221 226 220 197 187 222 209 201 213 208 192 190 179 204 232 187 164 203 232 245 277 231 170 184 150 131 145 143 138 149 158 163 168 167 168 170
173 201 198 205 204 200 206 188 173 181 188 184 199 207 206 216 214 202 209 216 214 205 203 216 185 188 191 178 202 227 222 214 209 197 213 211 199 359 355 11 20 26 34 6 334 146 120 201 198 200 217 222 215 232 213 139 155 207 209 198 206 207 196 188 198 216 213 159 195 218 195 169 231 207 186 202 184 163 176 166 142 143 153 160 165 163 160 164
202 214 181 166 235 241 239 203 182 185 187 183 184 188 200 215 218 187 197 215 213 205 213 211 182 195 199 197 213 229 223 213 206 215 217 197 137 10 77 87 53 68 72 7 327 64 109 229 221 214 228 223 170 213 268 146 182 206 206 201 205 205 194 193 211 211 156 156 232 214 160 183 218 203 199 204 195 188 182 176 172 164 160 154 146 144 149 155
211 226 214 178 166 207 230 225 194 197 191 180 185 191 192 207 215 196 197 213 208 197 205 213 211 213 209 202 210 221 218 213 213 224 222 191 139 156 163 191 207 138 113 111 316 87 135 233 230 217 237 237 171 223 318 58 222 220 206 204 204 200 198 203 216 208 167 197 232 172 167 203 208 190 201 196 193 197 178 169 170 156 147 144 145 155 164 168
173 282 296 338 67 189 209 197 190 212 199 179 189 203 193 202 211 206 196 197 205 202 200 213 222 218 213 210 208 209 211 209 216 224 215 187 169 170 179 215 199 129 123 151 192 142 166 233 223 200 235 240 216 217 5 27 316 283 232 214 204 203 205 208 218 215 199 222 233 142 186 226 197 181 200 190 185 183 142 139 147 145 152 156 162 173 179 182
159 246 260 54 312 164 161 158 168 217 217 190 195 202 199 205 210 208 195 183 195 200 198 216 228 219 210 210 210 218 217 211 219 222 189 174 193 192 196 203 150 134 172 173 184 190 194 222 191 154 227 237 209 179 129 49 339 296 278 248 218 208 206 213 225 220 214 238 242 227 274 265 208 167 166 118 122 117 113 138 149 152 162 163 171 184 188 192
72 12 80 114 212 179 164 166 166 195 226 212 205 203 204 210 209 205 203 198 203 202 196 214 226 220 204 207 213 224 227 219 226 225 178 180 200 193 191 188 147 149 182 183 171 174 185 214 113 130 217 232 201 172 161 83 43 294 270 254 228 205 202 215 225 211 208 227 228 229 254 248 188 141 110 96 122 134 151 165 160 164 169 168 182 191 192 195
118 36 79 108 250 183 165 159 165 190 212 203 204 209 204 207 193 182 200 215 215 209 197 218 228 223 205 211 218 226 229 215 214 219 175 179 185 147 157 173 158 156 169 178 171 161 178 190 166 178 212 230 199 164 149 114 79 260 256 237 202 197 213 215 217 211 209 211 210 223 234 209 152 145 144 157 170 167 176 178 171 175 176 182 195 194 190 195